Location: Bidart
(43.4376°N, 1.5913°W)
Time: 12:39:07
(UTC+00:00)

USA 229 DEB - Pass Details

Date: 17 April 2026
Orbit: 844 x 1364 km, 63.4° (Epoch: 10 January)

Event Time Altitude Azimuth Distance (km) Brightness Sun altitude
Rises 03:41:57 0° 309° (NW) 4,138 6.6 -17.2°
Reaches altitude 10° 03:45:49 10° 290° (WNW) 3,254 5.9 -16.6°
Enters shadow 03:48:38 16° 270° (W) 2,887 5.5 -16.1°
